Location: DARK SKY Beskydy - Park tmavé oblohy, www.darkskybeskydy.cz
(49.4926°N, 18.5016°E)
Time: 02:21:25
(UTC+02:00)

A-11 Canister half - Pass Details

Date: 25 February 2024
Orbit: 1513 x 1686 km, 47.2° (Epoch: 24 April)

Event Time Altitude Azimuth Distance (km) Brightness Sun altitude
Rises 03:29:34 0° 253° (WSW) 4,934 - -30.8°
Reaches altitude 10° 03:32:45 10° 252° (WSW) 3,940 - -30.4°
Exits shadow 03:40:07 54° 237° (WSW) 1,964 9.1 -29.2°
Maximum altitude 03:42:51 76° 169° (S) 1,700 9.0 -28.8°
Drops below altitude 10° 03:52:40 10° 86° (E) 3,836 12.0 -27.3°
Sets 03:55:43 0° 85° (E) 4,799 12.8 -26.9°
